RH
42 57 63 53 48 43 41 41 39 33 32 39 43 42 45 37 36 34 19 14 14 25 40 43 47 51 49 52 51 53 52 53 53 55 52 44 36 31 29 32 61 80 84 88
51 57 42 37 37 36 34 38 44 38 32 38 43 50 40 35 37 36 32 14 16 43 46 49 51 52 54 56 59 55 56 56 54 51 57 62 60 51 45 33 40 46 63 77
52 41 32 32 33 32 32 42 43 42 36 41 48 52 45 34 32 32 28 18 17 43 48 52 55 57 59 60 63 64 63 56 50 50 51 55 62 65 66 62 52 40 51 72
45 34 38 38 38 34 44 36 58 65 74 86 64 85 52 42 38 33 35 25 44 50 49 53 56 60 62 63 61 65 65 60 63 63 62 73 79 74 70 75 68 63 50 49
49 42 43 59 48 48 56 63 69 72 79 76 68 86 55 40 39 34 41 40 51 51 51 54 57 60 61 55 58 65 62 62 66 71 77 82 83 85 85 87 86 75 68 60
47 52 58 60 49 46 59 70 65 70 82 95 61 66 59 47 46 58 54 49 51 51 55 59 60 60 61 61 57 58 58 59 62 67 76 80 83 84 84 84 90 96 92 71
56 58 54 52 64 51 76 79 94 93 97 86 38 64 64 47 53 63 68 73 57 57 60 64 67 71 67 74 72 66 61 63 65 69 73 80 89 87 92 91 88 94 98 96
70 72 48 52 60 60 74 75 87 94 92 87 64 92 74 77 90 93 87 83 70 60 60 65 70 74 77 80 81 76 71 74 76 78 78 82 86 87 95 99 98 98 99 98
68 55 42 41 45 53 73 91 57 86 74 90 73 65 69 83 92 91 80 75 62 57 61 66 71 75 77 80 82 83 82 78 82 84 85 84 86 86 92 98 99 100 99 98
58 78 44 44 47 49 61 57 95 96 93 89 59 74 97 98 100 95 81 57 63 69 66 69 75 77 80 82 88 87 85 89 94 91 87 88 88 90 90 98 99 100 100 99
61 64 53 47 62 61 59 68 78 88 97 96 85 99 100 100 99 95 82 65 61 65 70 73 78 82 85 87 93 100 92 94 96 96 91 90 92 94 93 95 100 100 99 100
62 66 69 55 44 42 39 53 61 97 92 98 98 99 92 84 88 82 55 62 66 74 74 79 83 87 92 98 99 99 100 99 94 95 93 94 98 100 98 100 98 99 100 100
78 99 83 56 58 52 47 39 62 67 83 79 78 92 77 84 60 55 62 65 70 75 82 85 89 93 95 98 98 99 100 94 94 94 93 95 98 99 100 99 96 100 95 92
48 56 57 67 73 64 48 37 38 54 81 64 52 82 83 60 63 62 67 69 74 80 86 91 95 99 99 99 99 100 97 93 93 92 93 95 98 98 100 99 96 98 100 94
55 67 48 42 50 34 30 30 30 37 40 57 42 74 83 78 77 72 72 74 78 85 89 95 98 99 100 100 100 100 94 91 93 93 94 96 100 100 100 99 98 98 100 99
52 82 52 59 39 28 30 24 21 22 23 23 55 90 73 76 78 82 78 83 86 89 96 100 100 100 100 100 100 93 93 94 94 94 96 96 99 100 98 97 95 96 99 99
60 69 64 81 45 37 36 46 40 48 62 56 75 79 72 79 84 95 92 94 96 100 100 100 100 100 100 99 99 95 94 97 95 96 96 97 99 98 98 95 94 99 98 100
59 59 66 65 40 55 62 49 54 75 76 66 63 72 76 90 98 99 100 100 100 100 94 99 96 96 96 97 96 96 95 96 96 96 97 99 98 96 96 96 95 96 99 100
40 57 62 72 68 61 56 64 80 81 90 78 79 81 89 93 92 100 99 97 96 98 100 97 98 98 96 96 96 96 96 96 94 96 98 97 97 97 96 95 95 96 96 96
32 43 75 72 80 80 85 58 62 68 96 79 81 81 91 86 94 97 97 95 94 95 95 98 97 96 96 96 96 95 96 95 96 90 88 90 87 88 90 96 95 97 97 97
58 67 71 80 84 90 72 54 55 88 88 84 86 97 91 95 99 98 98 99 100 98 97 96 95 96 96 96 95 96 90 97 95 91 86 77 75 75 76 76 77 81 89 91
67 76 82 75 84 97 79 70 81 92 89 86 93 95 100 96 97 98 100 97 97 97 97 96 95 95 96 95 87 85 88 81 96 95 89 79 66 56 51 50 54 50 44 46
83 87 96 95 99 83 85 89 83 82 91 90 90 96 92 95 98 100 97 96 96 96 96 96 95 82 80 83 84 86 89 93 80 83 94 95 80 74 67 47 38 25 25 33
75 72 93 92 83 82 87 90 85 86 88 92 94 95 97 99 99 96 96 96 96 96 96 88 67 52 62 75 82 84 86 86 79 67 69 73 80 75 84 81 76 61 50 23
68 70 85 96 85 83 90 92 88 93 94 97 98 92 94 94 97 94 96 98 95 90 84 70 50 41 40 53 48 51 54 64 73 72 63 64 73 82 88 94 94 100 100 79
73 83 91 93 82 80 95 88 98 98 98 93 97 100 99 92 95 98 99 97 88 72 66 48 37 31 33 41 48 47 46 53 60 71 75 74 80 87 90 88 92 93 100 86
Wind_Speed
13 6 8 14 13 16 18 18 19 21 16 12 18 19 10 25 32 26 24 9 9 23 31 27 20 15 9 5 5 7 10 11 12 12 13 16 21 24 26 28 36 34 28 30
7 15 13 15 16 17 18 17 19 22 18 11 16 21 18 21 22 31 23 19 15 36 29 24 17 11 6 3 5 8 10 12 13 14 15 16 19 22 25 30 31 32 34 35
14 7 10 15 15 13 18 9 17 19 16 14 12 20 18 26 24 30 29 30 31 45 38 30 22 15 9 4 8 12 15 16 16 17 19 20 21 22 25 25 28 36 38 37
13 16 16 16 16 6 17 7 3 12 9 9 10 12 24 18 20 14 24 24 36 40 37 31 25 18 11 8 10 15 16 16 17 19 20 21 24 27 28 30 30 30 36 46
13 9 7 2 2 5 3 7 5 3 7 11 13 7 21 2 14 10 11 19 33 34 35 29 23 14 8 7 12 16 16 16 17 18 19 21 24 26 29 32 36 34 34 40
16 4 4 2 3 2 4 4 3 3 1 9 15 14 18 12 7 6 8 15 37 36 31 26 20 11 12 9 12 19 21 21 21 20 20 21 24 25 29 31 34 37 35 35
2 8 3 5 4 5 5 5 3 3 4 6 6 7 13 10 11 6 15 21 33 35 30 24 21 16 15 15 19 23 24 23 24 23 22 23 23 25 28 28 30 35 36 35
5 5 11 10 13 5 6 8 4 5 2 4 5 5 5 9 22 24 29 38 33 32 30 24 20 17 17 17 20 23 26 26 27 25 23 23 23 25 27 26 27 30 31 33
5 6 5 8 6 10 3 6 2 6 5 4 5 4 7 13 8 22 25 30 30 30 26 23 20 18 17 19 21 24 27 27 28 27 26 24 23 24 26 26 25 27 27 31
2 2 4 5 8 9 7 6 2 2 3 4 4 1 5 15 12 16 16 21 27 25 23 20 21 17 17 19 21 23 26 27 29 28 27 27 26 24 25 27 26 27 27 28
7 4 1 2 5 11 7 9 1 3 3 2 3 3 1 8 9 12 14 21 24 26 22 19 15 14 16 18 20 25 27 28 30 30 28 28 28 25 23 24 23 24 25 25
4 1 5 8 3 7 9 17 14 3 2 2 4 2 4 7 1 10 19 24 24 22 15 14 14 15 18 21 23 25 27 27 27 28 28 27 27 26 25 24 23 22 23 21
7 3 3 1 3 3 5 4 5 6 3 4 2 2 4 9 6 19 20 20 18 17 18 18 19 21 22 22 23 23 24 26 25 26 27 27 27 27 27 26 25 23 21 20
4 2 4 5 3 1 3 10 10 6 3 1 3 5 3 10 11 15 18 20 21 22 23 22 22 22 20 20 22 22 24 24 26 26 26 26 28 28 27 26 25 23 21 18
2 3 3 3 6 6 8 3 5 8 5 5 4 8 9 12 11 15 18 16 18 23 21 20 20 19 19 20 21 22 23 24 25 26 26 27 28 28 28 28 26 24 21 18
1 3 0 3 8 4 5 6 5 4 5 1 14 10 10 14 15 17 14 15 15 13 12 12 13 18 20 21 21 21 22 23 23 25 27 28 29 30 32 32 31 28 27 24
6 3 3 3 7 3 3 2 3 9 13 4 4 8 11 10 11 12 11 12 11 11 12 14 16 22 22 21 21 21 21 22 24 25 27 28 28 32 34 34 35 36 35 31
1 5 2 1 5 4 4 6 9 12 10 10 11 10 12 13 14 12 12 11 12 13 16 15 16 20 24 22 23 23 24 25 25 26 26 28 30 31 32 35 36 37 37 39
8 3 2 3 3 6 6 3 2 4 4 6 6 11 17 19 20 14 11 12 11 11 11 14 12 15 17 21 25 26 27 27 28 29 27 28 29 31 32 34 36 37 38 40
5 3 3 1 3 5 3 7 9 3 2 6 8 4 5 11 2 2 7 8 10 11 11 12 12 12 15 19 19 26 26 26 27 31 30 29 29 30 32 32 34 34 36 38
3 1 3 2 2 2 1 7 5 4 3 10 4 3 7 4 6 17 10 11 10 10 10 10 13 16 15 17 21 20 26 23 24 24 25 27 29 31 30 30 31 31 34 35
4 5 3 3 1 4 7 1 3 8 11 13 10 13 23 24 20 17 14 14 13 12 12 10 11 13 14 14 17 20 19 19 16 22 26 27 28 30 30 29 29 30 31 33
1 4 4 2 2 6 8 12 10 12 17 14 14 15 19 20 17 15 15 13 13 14 13 11 9 9 12 14 14 16 18 18 17 17 21 24 27 29 30 31 32 33 33 33
3 6 4 4 5 7 9 12 12 13 15 15 15 15 16 19 17 16 14 13 12 12 11 7 9 13 13 12 13 15 13 14 17 20 21 22 24 26 28 31 34 35 37 34
5 6 7 5 9 13 11 12 15 17 17 17 15 17 19 19 17 15 14 13 12 10 9 9 12 15 17 15 17 16 17 16 17 20 23 23 24 25 27 29 31 33 34 33
3 5 4 3 21 6 17 17 18 19 19 18 22 21 18 16 16 14 13 12 11 11 11 12 13 14 15 15 16 18 20 23 20 22 26 26 25 25 26 26 26 27 27 30
Wind_Direction
223 187 208 228 225 239 256 266 279 291 308 305 289 285 320 314 308 298 281 215 202 152 133 131 129 133 154 193 260 284 288 293 301 294 286 271 266 258 250 241 241 240 242 257
250 245 227 231 236 249 259 275 288 293 304 315 308 298 299 295 282 285 295 212 225 127 119 113 109 107 88 41 338 317 306 310 314 306 302 296 288 280 269 257 249 245 241 243
225 223 238 248 257 262 258 256 277 284 303 303 308 292 291 270 272 273 278 254 193 138 126 112 99 96 95 57 347 322 317 318 315 314 309 302 295 290 289 282 267 248 242 240
248 237 255 262 272 271 284 217 11 350 357 289 53 299 276 281 290 292 246 285 109 107 102 103 101 88 73 37 335 321 327 329 327 324 320 318 316 310 304 300 289 272 249 246
245 268 247 290 332 38 282 61 45 336 296 305 276 251 274 314 284 280 310 137 107 105 109 107 105 102 83 11 341 334 341 345 341 338 332 324 321 316 309 306 299 287 273 255
254 135 159 226 321 341 56 61 6 306 269 258 270 226 281 256 275 319 17 119 115 103 96 95 93 87 60 22 352 345 348 350 345 339 332 329 323 318 310 308 304 301 293 271
324 254 198 187 236 255 97 69 327 287 212 255 274 257 250 293 318 283 136 88 81 87 82 72 64 58 48 11 355 352 352 352 346 340 335 328 328 324 316 312 309 304 302 293
197 304 223 194 202 178 148 143 186 254 255 319 334 252 269 6 92 84 87 88 75 74 73 67 61 50 33 13 359 352 351 352 349 345 341 331 328 328 321 315 310 301 302 298
210 241 348 157 177 175 171 194 177 290 279 266 235 281 71 60 49 92 83 82 77 71 66 60 49 33 16 3 358 355 352 352 352 351 345 339 332 329 327 316 314 314 309 300
180 308 232 198 151 202 156 153 139 193 263 248 267 22 33 21 93 70 71 81 86 76 60 55 48 28 9 0 358 354 356 357 356 354 353 346 339 332 330 325 318 314 312 300
142 159 211 42 184 191 188 230 135 159 233 285 311 80 350 68 67 85 84 82 78 77 68 57 47 26 9 1 5 357 1 2 359 359 359 351 346 339 329 328 327 319 309 304
162 80 223 218 154 228 224 220 207 180 240 327 347 111 125 95 148 140 110 87 79 79 77 61 38 19 13 8 9 4 4 5 2 1 4 0 356 349 345 337 333 328 324 321
140 188 204 275 10 274 241 217 165 186 153 219 261 108 172 159 93 93 94 90 84 75 58 43 27 19 12 8 15 6 8 8 5 5 8 8 4 360 359 352 344 332 330 320
169 249 197 171 167 287 229 238 216 159 127 197 281 131 160 84 90 76 82 72 62 53 41 32 23 15 9 13 12 6 12 13 13 14 13 12 11 10 6 2 358 350 340 345
109 258 261 312 194 182 286 318 248 215 191 155 229 124 92 77 70 64 66 60 48 41 32 25 20 11 12 15 13 12 16 19 20 24 21 23 21 20 20 18 13 10 5 5
99 279 77 336 270 195 254 313 307 307 319 18 116 105 90 78 68 56 53 60 59 46 36 30 26 22 22 18 16 18 23 27 29 32 29 30 31 31 32 32 28 25 27 23
153 168 115 232 224 307 321 348 359 85 44 19 61 120 122 93 76 56 69 72 69 61 43 38 35 30 31 29 26 31 35 36 36 36 35 34 36 40 40 40 40 39 39 36
219 167 245 203 92 201 121 53 78 97 62 44 86 107 114 117 100 71 63 64 57 48 40 42 44 44 45 45 44 40 42 41 40 38 38 38 36 39 42 42 43 44 45 45
192 173 143 143 178 117 142 51 134 140 84 49 62 119 127 132 103 75 66 63 61 61 44 47 51 54 49 45 44 44 41 42 41 40 38 39 39 39 42 47 47 47 47 50
226 214 133 163 161 209 193 142 122 77 174 75 68 26 149 176 94 92 88 75 71 63 61 59 50 58 58 54 49 41 38 36 39 42 42 43 44 43 44 44 49 48 50 50
162 116 176 232 205 133 249 77 111 88 198 106 90 38 257 109 107 138 125 106 90 86 74 65 65 61 59 60 57 48 33 33 34 38 40 45 46 47 45 44 44 47 50 50
151 168 178 204 174 195 7 320 194 132 115 115 107 104 101 117 122 127 127 118 105 90 82 71 69 63 60 65 67 60 45 26 36 37 36 39 39 42 43 43 44 45 45 48
107 163 136 30 105 77 59 96 123 145 134 124 128 128 126 125 128 133 129 124 111 99 85 75 62 73 71 71 70 65 56 35 38 42 47 38 37 35 34 37 39 42 41 42
114 152 94 155 133 117 113 109 126 136 135 140 138 142 145 135 135 127 124 122 118 110 103 103 79 68 69 68 68 67 61 50 43 42 41 42 36 34 34 32 32 34 35 37
189 116 123 82 123 129 136 133 138 132 135 134 140 140 136 135 130 127 122 121 117 111 103 89 76 66 63 65 61 60 60 47 43 42 40 40 41 40 34 32 32 30 29 31
22 154 159 200 166 134 148 156 147 140 137 137 133 133 134 135 132 134 120 112 105 97 90 85 77 70 66 61 55 51 49 49 39 43 41 38 39 38 37 35 32 31 22 23